Location: Unspecified
(0.0000°N, 0.0000°E)
Time: 22:24:17
(UTC+00:00)

Altair - All Passes

Search period start: 20 August 2014 00:00
Search period end: 30 August 2014 00:00
Orbit: 1502 x 1682 km, 47.2° (Epoch: 20 August)

Date Brightness Start Highest point End Pass type
(mag) Time Alt. Az. Time Alt. Az. Time Alt. Az.
20 Aug - 04:54:03 10° N 05:01:41 29° NE 05:09:31 10° ESE visible
20 Aug - 06:57:03 10° NW 07:06:13 59° SW 07:15:49 10° SSE daylight
20 Aug - 15:44:31 10° SSE 15:46:46 11° SE 15:49:00 10° SE daylight
20 Aug - 17:42:26 10° SSW 17:52:18 63° SE 18:01:46 10° NE daylight
20 Aug - 19:49:02 10° WSW 19:56:55 28° NW 20:04:35 10° N visible
21 Aug - 04:29:20 10° N 04:36:32 25° NE 04:43:52 10° E visible
21 Aug - 06:31:50 10° NW 06:41:05 67° SW 06:50:45 10° SSE daylight
21 Aug - 08:43:44 10° WSW 08:46:29 11° SW 08:49:17 10° SSW daylight
21 Aug - 17:17:23 10° SSW 17:27:09 57° SE 17:36:32 10° NE daylight
21 Aug - 19:23:26 10° WSW 19:31:44 31° NW 19:39:50 10° N visible
22 Aug - 04:04:40 10° N 04:11:21 22° NE 04:18:09 10° E visible
22 Aug - 06:06:40 10° NW 06:15:57 74° SW 06:25:39 10° SSE daylight
22 Aug - 08:17:03 10° WSW 08:21:12 13° SW 08:25:26 10° SSW daylight
22 Aug - 16:52:21 10° SSW 17:01:59 51° SE 17:11:15 10° ENE daylight
22 Aug - 18:57:53 10° WSW 19:06:34 35° NW 19:15:01 10° NNE visible
23 Aug - 03:40:06 10° N 03:46:10 19° NE 03:52:19 10° E visible
23 Aug - 05:41:31 10° NW 05:50:49 82° SW 06:00:31 10° SE daylight
23 Aug - 07:50:49 10° WSW 07:55:56 16° SW 08:01:09 10° SSW daylight
23 Aug - 16:27:21 10° SSW 16:36:49 45° SE 16:45:55 10° ENE daylight
23 Aug - 18:32:24 10° WSW 18:41:25 40° NW 18:50:10 10° NNE visible
24 Aug - 03:15:39 10° N 03:20:59 17° NE 03:26:22 10° E visible
24 Aug - 05:16:25 10° NW 05:25:42 89° NE 05:35:22 10° SE visible
24 Aug - 07:24:50 10° W 07:30:41 18° SW 07:36:41 10° S daylight
24 Aug - 16:02:23 10° SSW 16:11:38 40° SE 16:20:33 10° ENE daylight
24 Aug - 18:06:57 10° WSW 18:16:16 45° NW 18:25:16 10° NNE visible
25 Aug - 02:51:22 10° NNE 02:55:46 14° NE 03:00:11 10° ENE visible
25 Aug - 04:51:20 10° NW 05:00:35 81° NE 05:10:12 10° SE visible
25 Aug - 06:59:00 10° W 07:05:27 20° SW 07:12:05 10° S daylight
25 Aug - 15:37:27 10° SSW 15:46:26 36° SE 15:55:08 10° ENE daylight
25 Aug - 17:41:34 10° WSW 17:51:07 50° NW 18:00:20 10° NNE daylight
26 Aug - 02:27:26 10° NNE 02:30:32 12° NE 02:33:38 10° ENE visible
26 Aug - 04:26:17 10° NNW 04:35:28 73° NE 04:44:59 10° SE visible
26 Aug - 06:33:17 10° W 06:40:14 23° SW 06:47:24 10° S daylight
26 Aug - 15:12:33 10° S 15:21:14 32° SE 15:29:40 10° ENE daylight
26 Aug - 17:16:13 10° SW 17:25:58 57° NW 17:35:23 10° NNE daylight
27 Aug - 04:01:16 10° NNW 04:10:22 65° NE 04:19:45 10° SE visible
27 Aug - 06:07:40 10° W 06:15:02 26° SW 06:22:39 10° S daylight
27 Aug - 14:47:43 10° S 14:56:01 29° SE 15:04:07 10° ENE daylight
27 Aug - 16:50:54 10° SW 17:00:49 63° NW 17:10:23 10° NNE daylight
27 Aug - 19:04:58 10° NW 19:06:02 10° NW 19:07:06 10° NW visible
28 Aug - 03:36:17 10° NNW 03:45:15 58° NE 03:54:28 10° SE visible
28 Aug - 05:42:08 10° WNW 05:49:51 29° SW 05:57:50 10° S daylight
28 Aug - 14:22:55 10° S 14:30:48 26° SE 14:38:31 10° E daylight
28 Aug - 16:25:38 10° SW 16:35:40 71° NW 16:45:21 10° NNE daylight
28 Aug - 18:37:13 10° WNW 18:40:46 12° NW 18:44:17 10° NNW visible
29 Aug - 03:11:19 10° NNW 03:20:08 51° NE 03:29:10 10° SE visible
29 Aug - 05:16:39 10° WNW 05:24:40 33° SW 05:32:59 10° SSE visible
29 Aug - 13:58:10 10° S 14:05:34 23° SE 14:12:49 10° E daylight
29 Aug - 16:00:24 10° SW 16:10:30 78° NW 16:20:18 10° NE daylight
29 Aug - 18:10:39 10° WNW 18:15:30 15° NW 18:20:18 10° NNW visible
